• In Österreich
  • Länderverzeichnis
  • Für 7 Tage
  • Wassertemperatur
  • Satellitenkarten
  • Wetterkarte
  • News
  • Widgets
  • user-avatar
    Anmelden

    Stündliche Wetter Belevo

    Heute, 20 September, Donnerstag

    Zeit Temperatur Niederschläge Wind Luftdruck Luftfeuchtigkeit
    00:00 +16°C° 0 mm 3 m/S 745 mmHg 92%
    01:00 +16°C° 0 mm 3 m/S 746 mmHg 93%
    02:00 +16°C° 0 mm 3 m/S 745 mmHg 94%
    03:00 +16°C° 0 mm 3 m/S 746 mmHg 95%
    04:00 +16°C° 0 mm 2 m/S 746 mmHg 95%
    05:00 +16°C° 0 mm 2 m/S 746 mmHg 95%
    06:00 +16°C° 0 mm 2 m/S 746 mmHg 92%
    07:00 +17°C° 0 mm 2 m/S 747 mmHg 89%
    08:00 +18°C° 0 mm 2 m/S 747 mmHg 86%
    09:00 +20°C° 0 mm 3 m/S 747 mmHg 79%
    10:00 +21°C° 0 mm 3 m/S 747 mmHg 71%
    11:00 +24°C° 0 mm 3 m/S 747 mmHg 63%
    12:00 +24°C° 0 mm 3 m/S 747 mmHg 60%
    13:00 +25°C° 0 mm 3 m/S 747 mmHg 57%
    14:00 +26°C° 0 mm 3 m/S 747 mmHg 55%
    15:00 +25°C° 0 mm 3 m/S 747 mmHg 59%
    16:00 +24°C° 0 mm 2 m/S 747 mmHg 64%
    17:00 +24°C° 0 mm 1 m/S 747 mmHg 69%
    18:00 +22°C° 0 mm 1 m/S 747 mmHg 74%
    19:00 +21°C° 0 mm 1 m/S 747 mmHg 78%
    20:00 +20°C° 0 mm 1 m/S 747 mmHg 83%
    21:00 +19°C° 0 mm 1 m/S 747 mmHg 85%
    22:00 +19°C° 0 mm 1 m/S 747 mmHg 87%
    23:00 +19°C° 0 mm 1 m/S 747 mmHg 89%

    Morgen, 21 September, Freitag

    Zeit Temperatur Niederschläge Wind Luftdruck Luftfeuchtigkeit
    00:00 +18°C° 0 mm 1 m/S 747 mmHg 90%
    01:00 +18°C° 0 mm 1 m/S 747 mmHg 91%
    02:00 +18°C° 0 mm 1 m/S 747 mmHg 92%
    03:00 +18°C° 0 mm 1 m/S 747 mmHg 92%
    04:00 +18°C° 0 mm 1 m/S 747 mmHg 93%
    05:00 +16°C° 0 mm 1 m/S 747 mmHg 93%
    06:00 +17°C° 0 mm 2 m/S 747 mmHg 90%
    07:00 +18°C° 0 mm 2 m/S 748 mmHg 87%
    08:00 +19°C° 0 mm 2 m/S 748 mmHg 84%
    09:00 +21°C° 0 mm 2 m/S 748 mmHg 78%
    10:00 +22°C° 0 mm 3 m/S 748 mmHg 71%
    11:00 +25°C° 0 mm 3 m/S 748 mmHg 65%
    12:00 +25°C° 0 mm 3 m/S 747 mmHg 61%
    13:00 +26°C° 0 mm 3 m/S 747 mmHg 58%
    14:00 +27°C° 0 mm 4 m/S 747 mmHg 54%
    15:00 +26°C° 0 mm 3 m/S 746 mmHg 59%
    16:00 +25°C° 0 mm 3 m/S 746 mmHg 63%
    17:00 +24°C° 0 mm 3 m/S 746 mmHg 67%
    18:00 +21°C° 0 mm 3 m/S 746 mmHg 70%
    19:00 +20°C° 0 mm 3 m/S 745 mmHg 72%
    20:00 +19°C° 0 mm 4 m/S 745 mmHg 75%
    21:00 +19°C° 0 mm 4 m/S 745 mmHg 75%
    22:00 +18°C° 0 mm 4 m/S 745 mmHg 76%
    23:00 +18°C° 0 mm 4 m/S 744 mmHg 76%

    übermorgen, 22 September, Samstag

    Zeit Temperatur Niederschläge Wind Luftdruck Luftfeuchtigkeit
    00:00 +18°C° 0 mm 4 m/S 744 mmHg 76%
    01:00 +16°C° 0 mm 5 m/S 744 mmHg 76%
    02:00 +16°C° 0 mm 5 m/S 743 mmHg 76%
    03:00 +16°C° 0 mm 5 m/S 743 mmHg 75%
    04:00 +16°C° 0 mm 5 m/S 742 mmHg 74%
    05:00 +15°C° 0 mm 5 m/S 742 mmHg 72%
    06:00 +16°C° 0 mm 6 m/S 742 mmHg 71%
    07:00 +16°C° 0 mm 6 m/S 742 mmHg 69%
    08:00 +17°C° 0 mm 6 m/S 741 mmHg 67%
    09:00 +19°C° 0 mm 6 m/S 741 mmHg 64%
    10:00 +21°C° 0 mm 6 m/S 742 mmHg 61%
    11:00 +22°C° 0 mm 6 m/S 742 mmHg 58%
    12:00 +20°C° 0.1 mm 6 m/S 742 mmHg 65%
    13:00 +17°C° 0.1 mm 5 m/S 742 mmHg 72%
    14:00 +15°C° 0.1 mm 5 m/S 742 mmHg 78%
    15:00 +14°C° 0.2 mm 5 m/S 742 mmHg 80%
    16:00 +13°C° 0.2 mm 4 m/S 743 mmHg 82%
    17:00 +12°C° 0.2 mm 4 m/S 743 mmHg 84%
    18:00 +11°C° 0.7 mm 4 m/S 743 mmHg 86%
    19:00 +11°C° 0.7 mm 4 m/S 743 mmHg 88%
    20:00 +11°C° 0.7 mm 4 m/S 744 mmHg 89%
    21:00 +10°C° 0.7 mm 4 m/S 743 mmHg 89%
    22:00 +10°C° 0.7 mm 3 m/S 743 mmHg 89%
    23:00 +10°C° 0.7 mm 3 m/S 743 mmHg 89%

    23 September, Sonntag

    Zeit Temperatur Niederschläge Wind Luftdruck Luftfeuchtigkeit
    00:00 +9°C° 0.2 mm 3 m/S 743 mmHg 90%
    01:00 +9°C° 0.2 mm 3 m/S 743 mmHg 90%
    02:00 +9°C° 0.2 mm 3 m/S 743 mmHg 91%
    03:00 +8°C° 0 mm 3 m/S 743 mmHg 92%
    04:00 +8°C° 0 mm 3 m/S 743 mmHg 93%
    05:00 +7°C° 0 mm 3 m/S 743 mmHg 94%
    06:00 +8°C° 0 mm 3 m/S 742 mmHg 90%
    07:00 +8°C° 0 mm 4 m/S 742 mmHg 85%
    08:00 +8°C° 0 mm 4 m/S 742 mmHg 81%
    09:00 +10°C° 0 mm 5 m/S 742 mmHg 76%
    10:00 +12°C° 0 mm 5 m/S 742 mmHg 70%
    11:00 +14°C° 0 mm 6 m/S 742 mmHg 64%
    12:00 +14°C° 0.1 mm 6 m/S 742 mmHg 63%
    13:00 +14°C° 0.1 mm 6 m/S 742 mmHg 61%
    14:00 +14°C° 0.1 mm 6 m/S 741 mmHg 59%
    15:00 +14°C° 0.1 mm 5 m/S 741 mmHg 63%
    16:00 +13°C° 0.1 mm 4 m/S 741 mmHg 67%
    17:00 +12°C° 0.1 mm 4 m/S 741 mmHg 70%
    18:00 +11°C° 0 mm 3 m/S 741 mmHg 73%
    19:00 +10°C° 0 mm 3 m/S 741 mmHg 76%
    20:00 +9°C° 0 mm 3 m/S 741 mmHg 79%
    21:00 +9°C° 0 mm 3 m/S 741 mmHg 80%
    22:00 +8°C° 0 mm 3 m/S 741 mmHg 80%
    23:00 +8°C° 0 mm 3 m/S 740 mmHg 81%

    24 September, Montag

    Zeit Temperatur Niederschläge Wind Luftdruck Luftfeuchtigkeit
    00:00 +8°C° 0 mm 3 m/S 740 mmHg 79%
    01:00 +9°C° 0 mm 3 m/S 739 mmHg 78%
    02:00 +9°C° 0 mm 3 m/S 739 mmHg 76%
    03:00 +8°C° 0.6 mm 4 m/S 738 mmHg 80%
    04:00 +8°C° 0.6 mm 5 m/S 736 mmHg 83%
    05:00 +7°C° 0.6 mm 6 m/S 735 mmHg 87%
    06:00 +8°C° 1.4 mm 7 m/S 734 mmHg 88%
    07:00 +7°C° 1.4 mm 8 m/S 732 mmHg 89%
    08:00 +7°C° 1.4 mm 9 m/S 731 mmHg 90%
    09:00 +7°C° 2.2 mm 9 m/S 729 mmHg 90%
    10:00 +8°C° 2.2 mm 10 m/S 728 mmHg 89%
    11:00 +8°C° 2.2 mm 10 m/S 726 mmHg 89%
    12:00 +9°C° 1.1 mm 10 m/S 725 mmHg 88%
    13:00 +11°C° 1.1 mm 9 m/S 723 mmHg 87%
    14:00 +12°C° 1.1 mm 9 m/S 722 mmHg 86%
    15:00 +10°C° 0.2 mm 9 m/S 722 mmHg 85%
    16:00 +9°C° 0.2 mm 8 m/S 721 mmHg 85%
    17:00 +7°C° 0.2 mm 8 m/S 721 mmHg 84%
    18:00 +7°C° 0.3 mm 9 m/S 722 mmHg 84%
    19:00 +6°C° 0.3 mm 11 m/S 723 mmHg 84%
    20:00 +5°C° 0.3 mm 12 m/S 724 mmHg 85%
    21:00 +5°C° 0.6 mm 12 m/S 726 mmHg 84%
    22:00 +4°C° 0.6 mm 12 m/S 728 mmHg 83%
    23:00 +4°C° 0.6 mm 12 m/S 730 mmHg 82%

    25 September, Dienstag

    Zeit Temperatur Niederschläge Wind Luftdruck Luftfeuchtigkeit
    00:00 +4°C° 0.1 mm 12 m/S 731 mmHg 81%
    01:00 +3°C° 0.1 mm 11 m/S 732 mmHg 81%
    02:00 +3°C° 0.1 mm 10 m/S 734 mmHg 80%
    03:00 +3°C° 0 mm 10 m/S 735 mmHg 80%
    04:00 +2°C° 0 mm 9 m/S 736 mmHg 80%
    05:00 +2°C° 0 mm 9 m/S 737 mmHg 80%
    06:00 +2°C° 0 mm 9 m/S 737 mmHg 78%
    07:00 +3°C° 0 mm 9 m/S 738 mmHg 76%
    08:00 +3°C° 0 mm 9 m/S 739 mmHg 74%
    09:00 +5°C° 0 mm 9 m/S 740 mmHg 68%
    10:00 +5°C° 0 mm 9 m/S 740 mmHg 62%
    11:00 +6°C° 0 mm 9 m/S 741 mmHg 56%
    12:00 +6°C° 0 mm 9 m/S 742 mmHg 54%
    13:00 +7°C° 0 mm 8 m/S 742 mmHg 53%
    14:00 +7°C° 0 mm 8 m/S 743 mmHg 52%
    15:00 +6°C° 0 mm 7 m/S 743 mmHg 55%
    16:00 +7°C° 0 mm 5 m/S 744 mmHg 59%
    17:00 +7°C° 0 mm 4 m/S 744 mmHg 62%
    18:00 +6°C° 0 mm 4 m/S 745 mmHg 66%
    19:00 +5°C° 0 mm 4 m/S 746 mmHg 70%
    20:00 +4°C° 0 mm 4 m/S 746 mmHg 74%
    21:00 +4°C° 0 mm 4 m/S 747 mmHg 77%
    22:00 +3°C° 0 mm 4 m/S 747 mmHg 80%
    23:00 +3°C° 0 mm 3 m/S 748 mmHg 83%
    Mehr zeigen